User: anonymous   Login
Location: Caltech
(34.1382°N, 118.1253°W)
Time: 14:54:30
(UTC-07:00)
Language:

ITAMSAT 1 - Orbit

View from above orbital plane
View from above orbital plane
View from above satellite
View from above satellite

Ground track
Ground track

The orbit data is extracted from the following two-line orbital elements,

1 22826U 93061D   16126.38628159  .00000033  00000-0  30125-4 0  9998
2 22826  98.7499  82.5069 0010082  75.8743 284.3559 14.30276643179282
Epoch (UTC): 05 May 2016 09:16:14
Eccentricity: 0.0010082
inclination: 98.7499°
perigee height: 783 km
apogee height: 798 km
right ascension of ascending node: 82.5069°
argument of perigee: 75.8743°
revolutions per day: 14.30276643
mean anomaly at epoch: 284.3559°
orbit number at epoch: 17928

The dashed part of the orbit path shows where the satellite is in the earth's shadow,  

DLR